Location: Ellerstadt
(49.4644°N, 8.2615°E)
Time: 23:56:43
(UTC+00:00)

Ariane Rocket - Pass Details

Date: 03 March 2021
Orbit: 759 x 771 km, 98.7° (Epoch: 13 April)

Event Time Altitude Azimuth Distance (km) Brightness Sun altitude
Exits shadow 18:42:04 18° 130° (SE) 1,808 4.4 -15.2°
Maximum altitude 18:45:29 44° 67° (ENE) 1,064 3.3 -15.8°
Drops below altitude 10° 18:50:19 10° 356° (N) 2,324 5.7 -16.5°
Sets 18:52:42 0° 350° (N) 3,254 6.5 -16.9°
